Find Taijing-1 03

NORAD ID: 58820 Int'l Des: NNA 2024-016 Owner: WEINA Country: CN operational
LEOCIRCULARRETROGRADESSO

現在のビュー

3D地球を読み込み中...

Taijing-1 03について

説明を読み込み中...

次回通過

Passes for default location (London). Set your location on the main map for personalized predictions.

高度履歴

Loading altitude history...

軌道要素

1 58820U 24016A 26144.95197766 .00029423 00000-0 46605-3 0 9997
2 58820 97.4475 239.3366 0007934 134.9017 225.2882 15.53342925130463
Epoch: May 24, 2026 • Age: 8 hours

現在のステータス

高度 416.0 km
速度 7.67 km/s
衛星直下点 79.98°N, 119.29°E
打ち上げ日 Jan 23, 2024
運用期間 2.3 years
タイプ other

技術仕様

分類 Payload
質量 70.00 kg
乾燥質量 70.00 kg
総質量 70.00 kg
長さ 0.50 m
直径 0.20 m
スパン 0.50 m
形状 Box + 2 pan
製造者 WEINA
バスタイプ MN30
フェーズステータス In Orbit
所有者/国 WEINA/CN

Most Searched